星链-35939(STARLINK-35939)

导读 | 豆包AI

STARLINK-35939是美国于2025年11月21日发射的星链卫星,星链项目由SpaceX打造,旨在构建全球卫星互联网星座,为全球多地提供高速低延迟宽带服务,尤其覆盖偏远等网络基础设施薄弱区域,这颗卫星加入后进一步扩充了星链星座的在轨卫星规模。

基本信息
目录编号:
66584
目录名称:
STARLINK-35939
国际标识:
2025-268AD
轨道中心:
EARTH
卫星名称:
星链-35939
卫星全名:
星链-35939(STARLINK-35939)
卫星状态:
在轨 (已飞行134 天)
发射日期:
2025-11-21 UTC
国别 :
美国 (US)
星等 :
--
轨道信息
数据来源 国际轨道数据 AOE轨道数据
星历时间 2026-04-03T23:56:43+0800
14小时前
查看轨道信息
2026-04-02T08:00:00+0800
2天前
查看轨道信息
半长轴 6861.244km 6861.201km
偏心率 0.0002723 0.0001326
轨道倾角 43.000° 42.997°
近地点辐角 262.324° 304.291°
升交点赤经 205.636° 215.032°
平近点角 97.730° 252.045°
近地点 481.238km 482.154km
远地点 484.976km 483.974km
周期 94.268分钟 94.267分钟
每日圈数 15.275609 15.275751
详细信息
固有亮度:
5
最大亮度:
2.5
卫星平台:
Starlink V1.0
覆盖范围:
全球
运营商:
太空探索技术公司
运营商所在国:
美国
制造商(研发单位):
太空探索技术公司
制造商所在国:
美国
使用方式:
暂无
卫星简介
Starlink 计划是 SpaceX 推出的全球卫星互联网项目,通过发射低轨道卫星,为全球尤其是偏远地区提供高速、低延迟的互联网服务。自 2019 年起,Starlink 已部署数千颗卫星,旨在缩小全球数字鸿沟,推动互联网普及。该项目还为军事、航空等行业提供通信支持,带来广泛经济效益。
2D轨道图
3D轨道图
轨道高度分析图
轨道倾角分析图
轨道综合分析图
查看轨道综合分析图